VTYAW KBFI-BIKF

Flight info

Callsign VTYAW
Flight time N/A
Altitude 38000
Route ZIGED DCT YVR/N0461F390 DCT GABIN/N0466F380 DCT RORTU/N0468F390 DCT YOJ DCT 60N108W 63N095W/N0468F410 65N082W 66N070W/M080F410 DCT EPMAN DCT 67N050W 66N040W 64N030W DCT GISTU DCT GIRUG GIRUG3H
Aircraft B38M/M-SDE1FGHILORVWXY/HB1

Departure

Time 2026-04-23 12:59
Airport King County International Airport - Boeing Field (KBFI)

Arrival

Time N/A
Airport Keflavik International Airport (BIKF)
Time Latitude Longitude Altitude Speed Heading
2026-04-23 12:39 47.53441 -122.30901 26 ft 0 kts 58°
2026-04-23 12:54 47.53448 -122.30883 26 ft 3 kts 58°
2026-04-23 12:55 47.53468 -122.30836 27 ft 8 kts 58°
2026-04-23 12:55 47.53499 -122.30818 28 ft 2 kts 332°
2026-04-23 12:55 47.53532 -122.30848 30 ft 9 kts 328°
2026-04-23 12:55 47.53614 -122.30919 31 ft 18 kts 332°
2026-04-23 12:56 47.53754 -122.31033 33 ft 27 kts 331°
2026-04-23 12:56 47.53941 -122.31192 31 ft 31 kts 331°
2026-04-23 12:56 47.53983 -122.31220 31 ft 0 kts
2026-04-23 12:56 47.53988 -122.31220 31 ft 0 kts
2026-04-23 12:57 47.53990 -122.31219 31 ft 1 kts 12°
2026-04-23 12:58 47.53997 -122.31205 31 ft 4 kts 62°
2026-04-23 12:58 47.54019 -122.31112 33 ft 12 kts 102°
2026-04-23 12:58 47.54009 -122.31090 33 ft 0 kts 150°
2026-04-23 12:59 47.53981 -122.31066 33 ft 28 kts 150°
2026-04-23 12:59 47.53504 -122.30666 28 ft 126 kts 150°
2026-04-23 12:59 47.52527 -122.29849 244 ft 188 kts 151°
2026-04-23 12:59 47.51372 -122.28896 1198 ft 191 kts 152°
2026-04-23 13:00 47.50188 -122.27872 2193 ft 203 kts 154°
2026-04-23 13:00 47.48920 -122.26782 3082 ft 219 kts 153°
2026-04-23 13:00 47.47548 -122.25604 3940 ft 237 kts 152°
2026-04-23 13:00 47.46066 -122.24335 4775 ft 255 kts 151°
2026-04-23 13:01 47.44491 -122.22987 5734 ft 264 kts 150°
2026-04-23 13:01 47.43008 -122.21366 6801 ft 270 kts 130°
2026-04-23 13:01 47.41978 -122.18997 7615 ft 282 kts 109°
2026-04-23 13:01 47.41547 -122.16122 8318 ft 294 kts 87°
2026-04-23 13:02 47.41880 -122.13135 9117 ft 295 kts 63°
2026-04-23 13:02 47.42522 -122.11399 9934 ft 286 kts 47°
2026-04-23 13:02 47.44512 -122.08905 11143 ft 283 kts 20°
2026-04-23 13:02 47.45744 -122.08267 11591 ft 287 kts
2026-04-23 13:03 47.47775 -122.08175 12117 ft 300 kts 349°
2026-04-23 13:03 47.50389 -122.09764 12887 ft 318 kts 325°
2026-04-23 13:03 47.51954 -122.12144 13698 ft 327 kts 306°
2026-04-23 13:03 47.53034 -122.15131 14665 ft 331 kts 300°
2026-04-23 13:04 47.53718 -122.17176 15098 ft 338 kts 300°
2026-04-23 13:04 47.54741 -122.20334 15940 ft 341 kts 298°
2026-04-23 13:04 47.55818 -122.23476 16684 ft 344 kts 307°
2026-04-23 13:04 47.57455 -122.26052 17433 ft 345 kts 324°
2026-04-23 13:05 47.59557 -122.27809 18152 ft 350 kts 336°
2026-04-23 13:05 47.61806 -122.29235 18852 ft 354 kts 337°
2026-04-23 13:05 47.64109 -122.30628 19537 ft 358 kts 338°
2026-04-23 13:05 47.66430 -122.31996 20225 ft 361 kts 338°
2026-04-23 13:06 47.71149 -122.34721 21545 ft 368 kts 339°
2026-04-23 13:06 47.73554 -122.36098 22196 ft 371 kts 339°
2026-04-23 13:06 47.75973 -122.37482 22846 ft 374 kts 339°
2026-04-23 13:07 47.78420 -122.38882 23492 ft 378 kts 339°
2026-04-23 13:07 47.80854 -122.40275 24071 ft 381 kts 339°
2026-04-23 13:07 47.83336 -122.41697 24605 ft 383 kts 339°
2026-04-23 13:07 47.85835 -122.43131 25147 ft 385 kts 339°
2026-04-23 13:08 47.88350 -122.44575 25672 ft 388 kts 339°
2026-04-23 13:08 47.90864 -122.46019 26184 ft 390 kts 339°
2026-04-23 13:08 47.93421 -122.47491 26671 ft 393 kts 339°
2026-04-23 13:08 47.95982 -122.48966 27173 ft 395 kts 339°
2026-04-23 13:09 47.98561 -122.50453 27664 ft 398 kts 339°
2026-04-23 13:09 48.01153 -122.51948 28116 ft 400 kts 339°
2026-04-23 13:09 48.03746 -122.53447 28587 ft 403 kts 339°
2026-04-23 13:09 48.06384 -122.54972 29057 ft 405 kts 339°
2026-04-23 13:10 48.08982 -122.56478 29506 ft 408 kts 339°
2026-04-23 13:10 48.11648 -122.58023 29951 ft 410 kts 339°
2026-04-23 13:10 48.14323 -122.59575 30383 ft 412 kts 340°
2026-04-23 13:10 48.16997 -122.61129 30832 ft 412 kts 340°
2026-04-23 13:11 48.19665 -122.62681 31384 ft 408 kts 340°
2026-04-23 13:11 48.22299 -122.64214 31981 ft 404 kts 340°
2026-04-23 13:11 48.24871 -122.65713 32563 ft 399 kts 340°
2026-04-23 13:11 48.27447 -122.67217 33180 ft 395 kts 340°
2026-04-23 13:12 48.30001 -122.68709 33782 ft 391 kts 340°
2026-04-23 13:12 48.32519 -122.70182 34360 ft 387 kts 340°
2026-04-23 13:12 48.35022 -122.71648 34785 ft 386 kts 340°
2026-04-23 13:12 48.37536 -122.73121 35026 ft 389 kts 340°
2026-04-23 13:13 48.40050 -122.74596 35295 ft 391 kts 340°
2026-04-23 13:13 48.42606 -122.76097 35578 ft 393 kts 340°
2026-04-23 13:13 48.45165 -122.77602 35850 ft 395 kts 340°
2026-04-23 13:13 48.47736 -122.79115 36130 ft 397 kts 340°
2026-04-23 13:14 48.50317 -122.80636 36400 ft 399 kts 340°
2026-04-23 13:14 48.52905 -122.82163 36683 ft 401 kts 340°
2026-04-23 13:14 48.55511 -122.83702 36940 ft 403 kts 340°
2026-04-23 13:14 48.58113 -122.85240 37200 ft 404 kts 340°
2026-04-23 13:15 48.60736 -122.86793 37460 ft 406 kts 340°
2026-04-23 13:15 48.63367 -122.88351 37731 ft 407 kts 339°
2026-04-23 13:15 48.66013 -122.89921 37981 ft 409 kts 339°
2026-04-23 13:15 48.68668 -122.91498 38201 ft 410 kts 339°
2026-04-23 13:16 48.71332 -122.93081 38218 ft 410 kts 339°
2026-04-23 13:16 48.76628 -122.96236 38221 ft 409 kts 339°
2026-04-23 13:17 48.81884 -122.99373 38220 ft 408 kts 339°
2026-04-23 13:17 48.87155 -123.02527 38218 ft 407 kts 339°
2026-04-23 13:18 48.92431 -123.05688 38216 ft 406 kts 339°
2026-04-23 13:18 48.97688 -123.08846 38309 ft 407 kts 339°
2026-04-23 13:18 49.00341 -123.10329 38627 ft 406 kts 346°
2026-04-23 13:19 49.03132 -123.10864 38849 ft 407 kts
2026-04-23 13:19 49.05937 -123.10186 39038 ft 411 kts 15°
2026-04-23 13:19 49.08564 -123.08397 39164 ft 418 kts 27°
2026-04-23 13:19 49.10885 -123.05656 39211 ft 427 kts 40°
2026-04-23 13:20 49.12758 -123.02068 39227 ft 435 kts 50°
2026-04-23 13:20 49.16123 -122.94406 39223 ft 438 kts 51°